Starlink 3828

operational
NORAD ID: 52469 Int'l Des: 2022-049 Owner: SPXS Country: US Constellation: starlink
LEOCIRCULAR

Über Starlink 3828

Beschreibung wird geladen...

Live-Position

3D-Globus wird geladen...

Nächste Überflüge

Höhenverlauf

Altitude vs Time

uPlot chart will show altitude changes over time

Zweizeiliger Elementsatz

1 52469U 22049U 25304.22452624 .00002658 00000-0 18492-3 0 9992
2 52469 53.2179 280.3145 0000829 98.5553 261.5533 15.08861551192706
Epoch: 31. Okt. 2025 • Age: 35 hours

Aktueller Status

Höhe 545.7 km
Geschwindigkeit 7.60 km/s
Subsatellitenpunkt 53.25°N, 65.92°E
Startdatum 6. Mai 2022
Alter 3.4 years
Typ internet

Technische Details

Klassifizierung Payload
Masse 297.00 kg
Trockenmasse 220.00 kg
Gesamtmasse 297.00 kg
Länge 0.20 m
Durchmesser 2.80 m
Spannweite 9.00 m
Form Box + pan
Hersteller SPXS
Bus-Typ Starlink
Phasenstatus In Orbit
Besitzer/Staat SPXS/US

Große Konstellationen

Loading constellations...